Time,TemperatureF,DewpointF,PressureIn,WindDirection,WindDirectionDegrees,WindSpeedMPH,WindSpeedGustMPH,Humidity,HourlyPrecipIn,Conditions,Clouds,dailyrainin,SolarRadiationWatts/m^2,SoftwareType,DateUTC
2013-11-11 00:00:00,40.0,33.0,-100.00,SW,225,5.0,-999.0,75,-99.99,,,-99.99,1.160000,,2013-11-11 05:00:00,
2013-11-11 00:44:00,40.0,33.0,-100.00,SW,225,5.0,-999.0,75,-99.99,,,-99.99,1.160000,,2013-11-11 05:44:00,
2013-11-11 00:54:00,40.0,33.0,-100.00,SW,225,5.0,-999.0,75,-99.99,,,-99.99,1.160000,,2013-11-11 05:54:00,
2013-11-11 01:00:00,40.0,33.0,-100.00,SSW,202,3.0,-999.0,76,-99.99,,,-99.99,1.160000,,2013-11-11 06:00:00,
2013-11-11 01:42:00,40.0,33.0,-100.00,SSW,202,3.0,-999.0,76,-99.99,,,-99.99,1.160000,,2013-11-11 06:42:00,
2013-11-11 01:52:00,40.0,33.0,-100.00,SSW,202,3.0,-999.0,76,-99.99,,,-99.99,1.160000,,2013-11-11 06:52:00,
2013-11-11 02:00:00,40.0,34.0,-100.00,SW,225,7.0,-999.0,79,0.01,,,-99.99,1.160000,,2013-11-11 07:00:00,
2013-11-11 02:43:00,40.0,34.0,-100.00,SW,225,7.0,-999.0,79,0.01,,,-99.99,1.160000,,2013-11-11 07:43:00,
2013-11-11 02:52:00,40.0,34.0,-100.00,SW,225,7.0,-999.0,79,0.01,,,-99.99,1.160000,,2013-11-11 07:52:00,
2013-11-11 03:00:00,37.0,34.0,-100.00,WSW,247,9.0,-999.0,87,0.05,,,-99.99,1.160000,,2013-11-11 08:00:00,
2013-11-11 03:42:00,37.0,34.0,-100.00,WSW,247,9.0,-999.0,87,0.05,,,-99.99,1.160000,,2013-11-11 08:42:00,
2013-11-11 03:52:00,37.0,34.0,-100.00,WSW,247,9.0,-999.0,87,0.05,,,-99.99,1.160000,,2013-11-11 08:52:00,
2013-11-11 04:00:00,36.0,34.0,-100.00,WSW,247,8.0,-999.0,92,0.08,,,-99.99,1.160000,,2013-11-11 09:00:00,
2013-11-11 04:43:00,36.0,34.0,-100.00,WSW,247,8.0,-999.0,92,0.08,,,-99.99,1.160000,,2013-11-11 09:43:00,
2013-11-11 04:54:00,36.0,34.0,-100.00,WSW,247,8.0,-999.0,92,0.08,,,-99.99,1.160000,,2013-11-11 09:54:00,
2013-11-11 05:00:00,37.0,35.0,-100.00,WSW,247,9.0,-999.0,91,0.04,,,-99.99,1.160000,,2013-11-11 10:00:00,
2013-11-11 05:42:00,37.0,35.0,-100.00,WSW,247,9.0,-999.0,91,0.04,,,-99.99,1.160000,,2013-11-11 10:42:00,
2013-11-11 05:52:00,37.0,35.0,-100.00,WSW,247,9.0,-999.0,91,0.04,,,-99.99,1.160000,,2013-11-11 10:52:00,
2013-11-11 06:00:00,37.0,35.0,-100.00,West,270,10.0,-999.0,91,0.07,,,-99.99,1.160000,,2013-11-11 11:00:00,
2013-11-11 06:42:00,37.0,35.0,-100.00,West,270,10.0,-999.0,91,0.07,,,-99.99,1.160000,,2013-11-11 11:42:00,
2013-11-11 06:52:00,37.0,35.0,-100.00,West,270,10.0,-999.0,91,0.07,,,-99.99,1.160000,,2013-11-11 11:52:00,
2013-11-11 07:00:00,37.0,35.0,-100.00,West,270,11.0,-999.0,91,0.05,,,-99.99,1.160000,,2013-11-11 12:00:00,
2013-11-11 07:42:00,37.0,35.0,-100.00,West,270,11.0,-999.0,91,0.05,,,-99.99,1.160000,,2013-11-11 12:42:00,
2013-11-11 07:52:00,37.0,35.0,-100.00,West,270,11.0,-999.0,91,0.05,,,-99.99,1.160000,,2013-11-11 12:52:00,
2013-11-11 08:00:00,32.0,30.0,-100.00,West,270,7.0,-999.0,92,-99.99,,,-99.99,2.320000,,2013-11-11 13:00:00,
2013-11-11 08:42:00,32.0,30.0,-100.00,West,270,7.0,-999.0,92,-99.99,,,-99.99,2.320000,,2013-11-11 13:42:00,
2013-11-11 08:52:00,32.0,30.0,-100.00,West,270,7.0,-999.0,92,-99.99,,,-99.99,2.320000,,2013-11-11 13:52:00,
2013-11-11 09:00:00,30.0,28.0,-100.00,WSW,247,7.0,-999.0,91,-99.99,,,-99.99,12.760000,,2013-11-11 14:00:00,
2013-11-11 09:42:00,30.0,28.0,-100.00,WSW,247,7.0,-999.0,91,-99.99,,,-99.99,12.760000,,2013-11-11 14:42:00,
2013-11-11 09:52:00,30.0,28.0,-100.00,WSW,247,7.0,-999.0,91,-99.99,,,-99.99,12.760000,,2013-11-11 14:52:00,
2013-11-11 10:00:00,29.0,26.0,-100.00,SSW,202,7.0,-999.0,91,-99.99,,,-99.99,53.360001,,2013-11-11 15:00:00,
2013-11-11 10:44:00,29.0,26.0,-100.00,SSW,202,7.0,-999.0,91,-99.99,,,-99.99,53.360001,,2013-11-11 15:44:00,
2013-11-11 10:53:00,29.0,26.0,-100.00,SSW,202,7.0,-999.0,91,-99.99,,,-99.99,53.360001,,2013-11-11 15:53:00,
2013-11-11 11:00:00,28.0,23.0,-100.00,WSW,247,8.0,-999.0,80,-99.99,,,-99.99,59.160000,,2013-11-11 16:00:00,
2013-11-11 11:42:00,28.0,23.0,-100.00,WSW,247,8.0,-999.0,80,-99.99,,,-99.99,59.160000,,2013-11-11 16:42:00,
2013-11-11 11:53:00,28.0,23.0,-100.00,WSW,247,8.0,-999.0,80,-99.99,,,-99.99,59.160000,,2013-11-11 16:53:00,
2013-11-11 12:00:00,29.0,19.0,-100.00,West,270,7.0,-999.0,67,-99.99,,,-99.99,124.120003,,2013-11-11 17:00:00,
2013-11-11 12:43:00,29.0,19.0,-100.00,West,270,7.0,-999.0,67,-99.99,,,-99.99,124.120003,,2013-11-11 17:43:00,
2013-11-11 12:52:00,29.0,19.0,-100.00,West,270,7.0,-999.0,67,-99.99,,,-99.99,124.120003,,2013-11-11 17:52:00,
2013-11-11 13:00:00,29.0,19.0,-100.00,West,270,6.0,-999.0,66,-99.99,,,-99.99,121.800003,,2013-11-11 18:00:00,
2013-11-11 13:42:00,29.0,19.0,-100.00,West,270,6.0,-999.0,66,-99.99,,,-99.99,121.800003,,2013-11-11 18:42:00,
2013-11-11 13:52:00,29.0,19.0,-100.00,West,270,6.0,-999.0,66,-99.99,,,-99.99,121.800003,,2013-11-11 18:52:00,
2013-11-11 14:00:00,29.0,19.0,-100.00,NW,315,5.0,-999.0,64,-99.99,,,-99.99,131.080002,,2013-11-11 19:00:00,
2013-11-11 14:42:00,29.0,19.0,-100.00,NW,315,5.0,-999.0,64,-99.99,,,-99.99,131.080002,,2013-11-11 19:42:00,
2013-11-11 14:53:00,29.0,19.0,-100.00,NW,315,5.0,-999.0,64,-99.99,,,-99.99,131.080002,,2013-11-11 19:53:00,
2013-11-11 15:00:00,29.0,20.0,-100.00,WNW,292,6.0,-999.0,68,-99.99,,,-99.99,120.639999,,2013-11-11 20:00:00,
2013-11-11 15:42:00,29.0,20.0,-100.00,WNW,292,6.0,-999.0,68,-99.99,,,-99.99,120.639999,,2013-11-11 20:42:00,
2013-11-11 15:52:00,29.0,20.0,-100.00,WNW,292,6.0,-999.0,68,-99.99,,,-99.99,120.639999,,2013-11-11 20:52:00,
2013-11-11 16:00:00,29.0,19.0,-100.00,WNW,292,6.0,-999.0,68,-99.99,,,-99.99,68.440002,,2013-11-11 21:00:00,
2013-11-11 16:43:00,29.0,19.0,-100.00,WNW,292,6.0,-999.0,68,-99.99,,,-99.99,68.440002,,2013-11-11 21:43:00,
2013-11-11 16:55:00,29.0,19.0,-100.00,WNW,292,6.0,-999.0,68,-99.99,,,-99.99,68.440002,,2013-11-11 21:55:00,
2013-11-11 17:00:00,28.0,20.0,-100.00,WNW,292,6.0,-999.0,71,-99.99,,,-99.99,34.799999,,2013-11-11 22:00:00,
2013-11-11 17:43:00,28.0,20.0,-100.00,WNW,292,6.0,-999.0,71,-99.99,,,-99.99,34.799999,,2013-11-11 22:43:00,
2013-11-11 17:53:00,28.0,20.0,-100.00,WNW,292,6.0,-999.0,71,-99.99,,,-99.99,34.799999,,2013-11-11 22:53:00,
2013-11-11 18:00:00,27.0,21.0,-100.00,West,270,7.0,-999.0,74,-99.99,,,-99.99,2.320000,,2013-11-11 23:00:00,
2013-11-11 18:43:00,27.0,21.0,-100.00,West,270,7.0,-999.0,74,-99.99,,,-99.99,2.320000,,2013-11-11 23:43:00,
2013-11-11 18:53:00,27.0,21.0,-100.00,West,270,7.0,-999.0,74,-99.99,,,-99.99,2.320000,,2013-11-11 23:53:00,
2013-11-11 19:00:00,27.0,18.0,-100.00,WSW,247,9.0,-999.0,66,-99.99,,,-99.99,0.000000,,2013-11-12 00:00:00,
2013-11-11 19:42:00,27.0,18.0,-100.00,WSW,247,9.0,-999.0,66,-99.99,,,-99.99,0.000000,,2013-11-12 00:42:00,
2013-11-11 19:52:00,27.0,18.0,-100.00,WSW,247,9.0,-999.0,66,-99.99,,,-99.99,0.000000,,2013-11-12 00:52:00,
2013-11-11 20:00:00,27.0,16.0,-100.00,SW,225,8.0,-999.0,61,-99.99,,,-99.99,0.000000,,2013-11-12 01:00:00,
2013-11-11 20:42:00,27.0,16.0,-100.00,SW,225,8.0,-999.0,61,-99.99,,,-99.99,0.000000,,2013-11-12 01:42:00,
2013-11-11 20:52:00,27.0,16.0,-100.00,SW,225,8.0,-999.0,61,-99.99,,,-99.99,0.000000,,2013-11-12 01:52:00,
2013-11-11 21:00:00,27.0,15.0,-100.00,West,270,8.0,-999.0,62,-99.99,,,-99.99,0.000000,,2013-11-12 02:00:00,
2013-11-11 21:42:00,27.0,15.0,-100.00,West,270,8.0,-999.0,62,-99.99,,,-99.99,0.000000,,2013-11-12 02:42:00,
2013-11-11 21:52:00,27.0,15.0,-100.00,West,270,8.0,-999.0,62,-99.99,,,-99.99,0.000000,,2013-11-12 02:52:00,
2013-11-11 22:00:00,27.0,16.0,-100.00,WSW,247,6.0,-999.0,64,-99.99,,,-99.99,0.000000,,2013-11-12 03:00:00,
2013-11-11 22:45:00,27.0,16.0,-100.00,WSW,247,6.0,-999.0,64,-99.99,,,-99.99,0.000000,,2013-11-12 03:45:00,
2013-11-11 22:54:00,27.0,16.0,-100.00,WSW,247,6.0,-999.0,64,-99.99,,,-99.99,0.000000,,2013-11-12 03:54:00,
2013-11-11 23:00:00,27.0,17.0,-100.00,WSW,247,6.0,-999.0,64,-99.99,,,-99.99,0.000000,,2013-11-12 04:00:00,
2013-11-11 23:44:00,27.0,17.0,-100.00,WSW,247,6.0,-999.0,64,-99.99,,,-99.99,0.000000,,2013-11-12 04:44:00,
2013-11-11 23:53:00,27.0,17.0,-100.00,WSW,247,6.0,-999.0,64,-99.99,,,-99.99,0.000000,,2013-11-12 04:53:00,